| time (UTC) | temp F | wind direction | speed MPH | gust MPH | rain 1hr in | rain 24hr in | rain mn in | humidity % | barometer mb |
| 20260508023202 | 51 | 81 | 3.0 | 5.0 | 0.00 | 0.00 | 0.00 | 76 | 924.8 |
| 20260508020913 | 52 | 113 | 2.0 | 5.0 | 0.00 | 0.00 | 0.00 | 73 | 925.4 |
| 20260507235107 | 54 | 112 | 4.0 | 8.0 | 0.00 | 0.00 | 0.00 | 72 | 926.1 |
| 20260507225621 | 55 | 159 | 2.0 | 6.0 | 0.00 | 0.00 | 0.00 | 71 | 926.3 |
| 20260507215812 | 54 | 165 | 2.0 | 5.0 | 0.00 | 0.00 | 0.00 | 72 | 926.0 |
| 20260507214416 | 54 | 165 | 2.0 | 5.0 | 0.00 | 0.00 | 0.00 | 72 | 926.0 |
| 20260507213902 | 54 | 165 | 2.0 | 5.0 | 0.00 | 0.00 | 0.00 | 72 | 926.0 |
| 20260507213727 | 54 | 165 | 2.0 | 5.0 | 0.00 | 0.00 | 0.00 | 72 | 926.0 |
| 20260507213114 | 54 | 165 | 1.0 | 2.0 | 0.00 | 0.00 | 0.00 | 72 | 926.0 |
| 20260507205824 | 54 | 273 | 4.0 | 15.0 | 0.00 | 0.00 | 0.00 | 72 | 925.8 |
| 20260507200602 | 57 | 193 | 6.0 | 17.0 | 0.00 | 0.00 | 0.00 | 61 | 925.2 |
| 20260507192734 | 62 | 111 | 9.0 | 16.0 | 0.00 | 0.00 | 0.00 | 51 | 924.4 |
| 20260507181405 | 64 | 93 | 6.0 | 13.0 | 0.00 | 0.00 | 0.00 | 45 | 924.3 |
| 20260507175122 | 64 | 93 | 6.0 | 13.0 | 0.00 | 0.00 | 0.00 | 45 | 924.3 |
| 20260507160005 | 64 | 158 | 3.0 | 14.0 | 0.00 | 0.00 | 0.00 | 40 | 924.3 |
| 20260507155438 | 64 | 158 | 3.0 | 14.0 | 0.00 | 0.00 | 0.00 | 40 | 924.3 |
| 20260507133754 | 66 | 226 | 2.0 | 8.0 | 0.00 | 0.00 | 0.00 | 40 | 924.9 |
| 20260507133446 | 66 | 226 | 2.0 | 8.0 | 0.00 | 0.00 | 0.00 | 40 | 924.9 |
| 20260507133006 | 66 | 226 | 5.0 | 19.0 | 0.00 | 0.00 | 0.00 | 40 | 924.9 |
| 20260507132022 | 65 | 347 | 3.0 | 8.0 | 0.00 | 0.00 | 0.00 | 47 | 924.7 |
| 20260507111823 | 64 | 107 | 1.0 | 4.0 | 0.00 | 0.00 | 0.00 | 49 | 925.6 |
| 20260507110227 | 64 | 107 | 3.0 | 10.0 | 0.00 | 0.00 | 0.00 | 49 | 925.6 |
| 20260507105317 | 64 | 107 | 3.0 | 10.0 | 0.00 | 0.00 | 0.00 | 49 | 925.6 |
| 20260507081802 | 48 | 13 | 2.0 | 8.0 | 0.00 | 0.00 | 0.00 | 87 | 925.6 |
| 20260507080620 | 48 | 13 | 2.0 | 8.0 | 0.00 | 0.00 | 0.00 | 87 | 925.6 |
| 20260507055326 | 47 | 336 | 1.0 | 5.0 | 0.00 | 0.00 | 0.00 | 87 | 925.5 |
| 20260507050306 | 48 | 345 | 1.0 | 3.0 | 0.00 | 0.00 | 0.00 | 85 | 925.5 |